Starlink 11327

operational
NORAD ID: 61695 Int'l Des: 2024-195 Owner: SPXS Country: US Constellation: starlink
LEOCIRCULAR

Über Starlink 11327

Beschreibung wird geladen...

Live-Position

3D-Globus wird geladen...

Nächste Überflüge

Höhenverlauf

Altitude vs Time

uPlot chart will show altitude changes over time

Zweizeiliger Elementsatz

1 61695U 24195J 25304.30498023 -.00004677 00000-0 -33793-4 0 9996
2 61695 53.1581 303.9798 0001545 68.1897 291.9285 15.69685552 58714
Epoch: 31. Okt. 2025 • Age: 6 hours

Aktueller Status

Höhe 378.9 km
Geschwindigkeit 7.68 km/s
Subsatellitenpunkt -52.56°S, 10.19°W
Startdatum 30. Okt. 2024
Alter 1 years
Typ internet

Technische Details

Klassifizierung Payload
Masse 960.00 kg
Trockenmasse 910.00 kg
Gesamtmasse 960.00 kg
Länge 0.30 m
Durchmesser 4.10 m
Spannweite 29.00 m
Form Box + pan
Hersteller SPXS
Bus-Typ Starlink V2MD
Phasenstatus In Orbit
Besitzer/Staat SPXS/US

Große Konstellationen

Loading constellations...